Regional Weather Roundup
Issued by NWS

Home | Current Version | Previous Version | Graphics & Text | Print | Product List | Glossary On
Versions: 1 2 3 4 5 6 7 8 9 10 11 12 13 14 15 16 17 18 19 20 21 22 23 24 25 26 27 28 29 30 31 32
000
ASUS45 KGTF 060510
RWRMT
MONTANA HOURLY WEATHER ROUNDUP
NATIONAL WEATHER SERVICE GREAT FALLS MT
1100 PM MDT TUE MAY 05 2015

NOTE: "FAIR" INDICATES FEW OR NO CLOUDS BELOW 12000 FEET WITH NO
SIGNIFICANT WEATHER AND/OR OBSTRUCTIONS TO VISIBILITY.

MTZ001>007-043-060600-
WEST OF THE DIVIDE

CITY           SKY/WX    TMP DP  RH WIND       PRES   REMARKS
KALISPELL      CLEAR     43  24  47 CALM      29.91R
MISSOULA       CLEAR     45  24  43 N9        29.93R
BUTTE          LGT RAIN  42  35  76 N17       29.91R
DEER LODGE       N/A     48  28  46 NW6       29.93R
EUREKA           N/A     48  27  43 E5        29.93S
HAMILTON         N/A     45  30  57 SE5       29.91R
LIBBY            N/A     43  27  52 S3        29.94S
$$

MTZ008-052>055-060600-
SOUTHWEST MONTANA

CITY           SKY/WX    TMP DP  RH WIND       PRES   REMARKS
BOZEMAN        CLOUDY    49  42  77 NW3       29.83R
DILLON         CLOUDY    49  43  80 SE5       29.85R
$$

MTZ009-010-012-014-046-048-049-054-060600-
EAST SLOPES AND CENTRAL MONTANA

CITY           SKY/WX    TMP DP  RH WIND       PRES   REMARKS
CUT BANK       CLOUDY    50  19  29 W18       29.81R
GREAT FALLS    CLOUDY    51  47  86 N7        29.79R
MALMSTROM AFB  CLOUDY    52  48  86 N5        29.79S
HELENA         CLOUDY    52  49  89 SW5       29.84R
$$

MTZ011-013-016-021-045-047-050-051-060600-
NORTH CENTRAL MONTANA

CITY           SKY/WX    TMP DP  RH WIND       PRES   REMARKS
HAVRE          CLOUDY    57  44  62 W20       29.74
LEWISTOWN      CLOUDY    53  46  77 W8        29.79S
CHINOOK          N/A     57  46  67 W14       29.73R
FORT BENTON      N/A     54  50  87 CALM      29.79R
$$

MTZ017>020-022>042-056>058-061-062-060600-
EASTERN PLAINS

CITY           SKY/WX    TMP DP  RH WIND       PRES   REMARKS
BAKER          PTCLDY    58  49  72 SE17      29.76S
BILLINGS       CLOUDY    59  48  67 VRB3      29.72F
GLASGOW        PTCLDY    66  49  54 SE20      29.64S
JORDAN           N/A     66  42  41 NW17G32   29.67S
LIVINGSTON     CLOUDY    52  43  71 SW13      29.80S
MILES CITY     PTCLDY    63  49  60 SE15      29.68R
SIDNEY         CLEAR     61  48  63 E8        29.75F
WOLF POINT     PTCLDY    64  51  62 E6G20     29.68S
BIG TIMBER       N/A     52  46  82 S9        29.78F
FORSYTH          N/A     61  46  59 CALM      29.66R
PLENTYWOOD       N/A     61  48  63 SE8       29.74F
POPLAR           N/A     63  52  67 E14       29.71S
$$

REGIONAL REPORTS...DAKOTAS

CITY           SKY/WX    TMP DP  RH WIND       PRES   REMARKS
WILLISTON      CLEAR     63  50  62 SE6       29.78S
MINOT          CLEAR     57  39  51 SE6       29.83S
DICKINSON      MOCLDY    53  49  86 E8        29.78F
BEACH          FAIR      55  54  94 SE10      29.77S
CROSBY         FAIR      59  48  67 SE13      29.78F
WATFORD CITY   FAIR      57  48  72 SE9       29.77S
BISMARCK       MOCLDY    60  52  74 SE12      29.85F
GRAND FORKS    CLEAR     65  53  65 S14       29.97R
FARGO          CLOUDY    65  53  65 S14G24    29.99S
BUFFALO SD       N/A     58  50  75 SE18      29.72S
RAPID CITY     CLOUDY    57  52  83 SE10      29.82F
$$

REGIONAL REPORTS...WYOMING/IDAHO/WASHINGTON

CITY           SKY/WX    TMP DP  RH WIND       PRES   REMARKS
GILLETTE       CLOUDY    55  47  74 S15       29.76F
SHERIDAN       MOCLDY    60  46  59 SE22G30   29.67S
BUFFALO WY     PTCLDY    55  46  71 S18       29.76S
CODY           CLOUDY    54  46  76 W5        29.79F
YELLOWSTONE LA   N/A     36  32  85 CALM      29.93F
IDAHO FALLS    CLOUDY    49  46  90 CALM      29.80S
SALMON         CLOUDY    54  30  40 N14G22    29.84R
BOISE          CLEAR     55  23  28 NW10      29.85R
SPOKANE        PTCLDY    48  20  32 SW6       29.94R
$$

REGIONAL REPORTS...ALBERTA

CITY           SKY/WX    TMP DP  RH WIND       PRES   REMARKS
EDMONTON       CLOUDY    41  32  70 N17G23    29.88R
CALGARY        FLURRIES  39  36  87 N23G32    29.85R WCI  29
LETHBRIDGE     CLEAR     52  19  28 W32G43    29.78R
MEDICINE HAT   MOCLDY    57  27  30 W14       29.72R
$$

REGIONAL REPORTS...SASKATCHEWAN

CITY           SKY/WX    TMP DP  RH WIND       PRES   REMARKS
SWIFT CURRENT  CLOUDY    64  41  42 W17G26    29.68F
REGINA         MOCLDY    64  50  59 SE17G25   29.72S
SASKATOON      LGT RAIN  63  48  59 S9        29.70R
$$



USA.gov is the U.S. government's official web portal to all federal, state and local government web resources and services.